Location: Lahas
(43.5538°N, 0.8906°E)
Time: 05:41:16
(UTC+00:00)

Cosmos 2333 Rocket - Pass Details

Date: 15 May 2026
Orbit: 840 x 862 km, 70.8° (Epoch: 6 June)

Event Time Altitude Azimuth Distance (km) Brightness Sun altitude
Rises 19:51:53 0° 342° (NNW) 3,421 6.3 -6.6°
Reaches altitude 10° 19:54:46 10° 355° (N) 2,485 5.2 -7.1°
Maximum altitude 19:59:29 26° 51° (NE) 1,633 3.6 -7.8°
Drops below altitude 10° 20:04:11 10° 107° (ESE) 2,486 4.1 -8.5°
Enters shadow 20:04:29 - 109° (ESE) 2,579 4.1 -8.5°
